Kodiak — WUV9256 — position and weather

sailwx.info

Track history (hours):
 
Tides and Currents Weather Stations Pressure Air Temp Water Temp Dewpoint Dewpoint Depression Visibility Wind Speed Wind Dir Waves Ship Positions

Kodiak

Owner: KLEMZAK, JOHN, KODIAK, AK. More information available from US FCC via Universal Licensing System and Coast Guard Vessel Documentation Center.

Last reported at 2014-Jun-09 04:33 UTC. Time now 2014-Oct-22 22:31 UTC.
Position N 58°14' W 136°17'.
Warning: this ship's position is months out of date.

Length 37 m; draft 3.5 m.

Type: Other ship. MMSI: 303546000.

Date/timePositionNaut miles runAvg speedWind from/ knotsBaromVisibWave heightAir tempDewpointWater temp
2014-Jun-09 04:33N 58°14' W 136°17'8 8.3
2014-Jun-09 03:33N 58°15' W 136°02'8 7.9
2014-Jun-09 02:33N 58°18' W 135°47'10 9.1
2014-Jun-09 01:24N 58°14' W 135°29'276 7.6
2014-Jun-07 13:19N 54°29' W 130°41'7 9.1
2014-Jun-07 12:34N 54°23' W 130°37'9 8.9
2014-Jun-07 11:33N 54°15' W 130°30'143 8.0
2014-Jun-06 17:31N 52°15' W 128°18'8 8.4
2014-Jun-06 16:33N 52°11' W 128°07'7 6.9
2014-Jun-06 15:30N 52°05' W 128°01'7 7.1
2014-Jun-06 14:29N 51°58' W 127°56'26 8.6
2014-Jun-06 11:28N 51°32' W 127°52'18 8.3
2014-Jun-06 09:20N 51°15' W 127°52'7 8.6
2014-Jun-06 08:33N 51°08' W 127°48'9 9.0
2014-Jun-06 07:33N 51°02' W 127°38'9 9.0
2014-Jun-06 06:33N 50°56' W 127°27'9 9.1
2014-Jun-06 05:33N 50°51' W 127°15'9 8.7
2014-Jun-06 04:33N 50°46' W 127°04'3131.4
2014-Jun-06 03:33N 50°30' W 126°21'41 5.1
2014-Jun-05 19:28N 50°13' W 125°23'17 5.7
2014-Jun-05 16:28N 49°58' W 125°10'6 5.7
2014-Jun-05 15:28N 49°54' W 125°04'6 6.7
2014-Jun-05 14:33N 49°49' W 124°57'8 7.3
2014-Jun-05 13:31N 49°44' W 124°49'8 7.7
2014-Jun-05 12:32N 49°39' W 124°41'8 7.7
2014-Jun-05 11:33N 49°33' W 124°32'7 7.4
2014-Jun-05 10:33N 49°29' W 124°24'8 7.8
2014-Jun-05 09:33N 49°24' W 124°14'7 7.5
2014-Jun-05 08:33N 49°20' W 124°04'7 6.7
2014-Jun-05 07:33N 49°17' W 123°55'6 6.5
2014-Jun-05 06:33N 49°14' W 123°47'7 7.0
2014-Jun-05 05:33N 49°10' W 123°37'8 8.3
2014-Jun-05 04:33N 49°03' W 123°29'8 8.3
2014-Jun-05 03:33N 48°57' W 123°22'7 6.6
2014-Jun-05 02:33N 48°50' W 123°21'1010.1
2014-Jun-05 01:33N 48°41' W 123°15'8 8.2
2014-Jun-05 00:33N 48°33' W 123°11'7 7.4
2014-Jun-04 23:33N 48°27' W 123°05'4 5.1
2014-Jun-04 22:43N 48°23' W 123°01'210.4
2014-Jun-04 22:33N 48°22' W 122°60'10 9.8
2014-Jun-04 21:32N 48°14' W 122°51'1510.9
2014-Jun-04 20:09N 48°02' W 122°37'610.8
2014-Jun-04 19:33N 47°57' W 122°31'3 9.9
2014-Jun-04 19:13N 47°54' W 122°28'6 9.8
2014-Jun-04 18:33N 47°48' W 122°26'016.4
2014-Jun-04 18:33N 47°48' W 122°26'8 7.7
2014-Jun-04 17:33N 47°40' W 122°24'0 2.0
2014-Jun-04 17:33N 47°40' W 122°24'1 1.4
2014-Jun-04 16:33N 47°40' W 122°23'0 0.2
2014-Jun-04 15:33N 47°39' W 122°23'0 0.0
2014-Jun-04 15:33N 47°39' W 122°23'0 0.0
2014-Jun-04 14:33N 47°40' W 122°23'0 0.0
2014-Jun-04 13:34N 47°40' W 122°23'0 0.0
2014-Jun-04 13:33N 47°40' W 122°23'0 0.0
2014-Jun-04 12:34N 47°39' W 122°23'0 0.0
2014-Jun-04 11:34N 47°39' W 122°23'0 0.0
2014-Jun-04 10:33N 47°40' W 122°23'0 0.0
2014-Jun-04 09:34N 47°39' W 122°23'0 0.0
2014-Jun-04 08:34N 47°39' W 122°23'0 0.0
2014-Jun-04 07:33N 47°40' W 122°23'0 0.0
2014-Jun-04 07:22N 47°39' W 122°23'0 0.0
2014-Jun-04 06:34N 47°39' W 122°23'0 0.0
2014-Jun-04 06:32N 47°39' W 122°23'0 0.0
2014-Jun-04 05:34N 47°39' W 122°23'0 0.0
2014-Jun-04 05:32N 47°39' W 122°23'0 0.0
2014-Jun-04 04:33N 47°40' W 122°23'0 0.2
2014-Jun-04 04:31N 47°39' W 122°23'0 0.0
2014-Jun-04 03:33N 47°39' W 122°23'0 0.0
2014-Jun-04 03:31N 47°39' W 122°23'0 0.0
2014-Jun-04 02:34N 47°39' W 122°23'0 0.0
2014-Jun-04 02:31N 47°39' W 122°23'0 0.0
2014-Jun-04 01:33N 47°39' W 122°23'0 0.0
2014-Jun-04 01:31N 47°39' W 122°23'0 0.0
2014-Jun-04 00:33N 47°39' W 122°23'0 0.0
2014-Jun-04 00:31N 47°39' W 122°23'0 0.0
2014-Jun-03 23:33N 47°39' W 122°23'0 0.2
2014-Jun-03 23:31N 47°40' W 122°23'0 0.0
2014-Jun-03 22:33N 47°39' W 122°23'0 0.2
2014-Jun-03 22:31N 47°40' W 122°23'0 0.0
2014-Jun-03 21:33N 47°39' W 122°23'0 0.0
2014-Jun-03 21:31N 47°39' W 122°23'0 0.0
2014-Jun-03 20:33N 47°39' W 122°23'0 0.0
2014-Jun-03 19:33N 47°39' W 122°23'0 0.0
2014-Jun-03 18:33N 47°39' W 122°23'0 0.0
2014-Jun-03 18:17N 47°40' W 122°23'0 0.0
2014-Jun-03 17:34N 47°40' W 122°23'0 0.5
2014-Jun-03 17:32N 47°39' W 122°23'0 0.0
2014-Jun-03 16:34N 47°39' W 122°23'0 0.0
2014-Jun-03 16:32N 47°39' W 122°23'0 0.0
2014-Jun-03 15:33N 47°39' W 122°23'0 0.0
2014-Jun-03 15:31N 47°39' W 122°23'0 0.0
2014-Jun-03 14:33N 47°39' W 122°23'0 0.0
2014-Jun-03 14:27N 47°39' W 122°23'0 0.0
2014-Jun-03 13:33N 47°39' W 122°23'0 0.2
2014-Jun-03 13:31N 47°40' W 122°23'0 0.0
2014-Jun-03 12:33N 47°39' W 122°23'0 0.0
2014-Jun-03 12:31N 47°39' W 122°23'0 0.0
2014-Jun-03 11:33N 47°39' W 122°23'0 0.2
2014-Jun-03 11:32N 47°40' W 122°23'0 0.0
2014-Jun-03 10:33N 47°40' W 122°23'0 0.0
2014-Jun-03 10:32N 47°40' W 122°23'0 0.0
2014-Jun-03 09:33N 47°40' W 122°23'0 0.0
2014-Jun-03 09:32N 47°40' W 122°23'0 0.0
2014-Jun-03 08:33N 47°39' W 122°23'0 0.2
2014-Jun-03 08:31N 47°40' W 122°23'0 0.0
2014-Jun-03 07:33N 47°39' W 122°23'0 0.2
2014-Jun-03 07:31N 47°40' W 122°23'0 0.0
2014-Jun-03 06:33N 47°40' W 122°23'0 0.2
2014-Jun-03 06:31N 47°39' W 122°23'0 0.0
2014-Jun-03 05:33N 47°39' W 122°23'0 0.2
2014-Jun-03 05:31N 47°40' W 122°23'0 0.0
2014-Jun-03 04:33N 47°39' W 122°23'0 0.0
2014-Jun-03 04:31N 47°39' W 122°23'0 0.0
2014-Jun-03 03:33N 47°39' W 122°23'0 0.0
2014-Jun-03 03:31N 47°39' W 122°23'0 0.0
2014-Jun-03 02:33N 47°40' W 122°23'0 0.0
2014-Jun-03 02:31N 47°40' W 122°23'0 0.0
2014-Jun-03 01:33N 47°39' W 122°23'0 0.0
2014-Jun-03 01:31N 47°39' W 122°23'0 0.0
2014-Jun-03 00:33N 47°40' W 122°23'0 0.1
2014-Jun-03 00:30N 47°39' W 122°23'0 0.0
2014-Jun-02 23:33N 47°39' W 122°23'0 0.0
2014-Jun-02 23:31N 47°39' W 122°23'0 0.0
2014-Jun-02 22:33N 47°39' W 122°23'0 0.0
2014-Jun-02 22:31N 47°39' W 122°23'0 0.0
2014-Jun-02 21:33N 47°39' W 122°23'0 0.0
2014-Jun-02 21:30N 47°39' W 122°23'0 0.0
2014-Jun-02 20:33N 47°39' W 122°23'0 0.0
2014-Jun-02 20:30N 47°39' W 122°23'0 0.0
2014-Jun-02 19:33N 47°39' W 122°23'0 0.0
2014-Jun-02 19:30N 47°39' W 122°23'0 0.0
2014-Jun-02 18:33N 47°39' W 122°23'0 0.0
2014-Jun-02 18:31N 47°39' W 122°23'0 0.0
2014-Jun-02 17:33N 47°40' W 122°23'0 0.0
2014-Jun-02 17:30N 47°40' W 122°23'0 0.0
2014-Jun-02 16:33N 47°39' W 122°23'0 0.0
2014-Jun-02 16:30N 47°39' W 122°23'0 0.0
2014-Jun-02 15:33N 47°40' W 122°23'0 0.0
2014-Jun-02 15:30N 47°40' W 122°23'0 0.0
2014-Jun-02 14:33N 47°39' W 122°23'0 0.1
2014-Jun-02 14:30N 47°40' W 122°23'0 0.0
2014-Jun-02 13:33N 47°40' W 122°23'0 0.0
2014-Jun-02 13:30N 47°40' W 122°23'0 0.0
2014-Jun-02 12:33N 47°39' W 122°23'0 0.0
2014-Jun-02 12:30N 47°39' W 122°23'0 0.0
2014-Jun-02 11:33N 47°40' W 122°23'0 0.1
2014-Jun-02 11:30N 47°39' W 122°23'0 0.0
2014-Jun-02 10:33N 47°40' W 122°23'0 0.0
2014-Jun-02 10:30N 47°40' W 122°23'0 0.0
2014-Jun-02 09:33N 47°39' W 122°23'0 0.0
2014-Jun-02 09:30N 47°39' W 122°23'0 0.0
2014-Jun-02 08:33N 47°39' W 122°23'0 0.0
2014-Jun-02 08:30N 47°39' W 122°23'0 0.0
2014-Jun-02 07:30N 47°40' W 122°23'0 0.0
2014-Jun-02 06:33N 47°39' W 122°23'0 0.0
2014-Jun-02 06:30N 47°39' W 122°23'0 0.0
2014-Jun-02 05:33N 47°40' W 122°23'0 0.2
2014-Jun-02 05:30N 47°39' W 122°23'0 0.0
2014-Jun-02 04:33N 47°39' W 122°23'0 0.0
2014-Jun-02 04:30N 47°39' W 122°23'0 0.0
2014-Jun-02 03:33N 47°39' W 122°23'0 0.0
2014-Jun-02 03:30N 47°39' W 122°23'0 0.0
2014-Jun-02 02:33N 47°39' W 122°23'0 0.7
2014-Jun-02 02:30N 47°39' W 122°23'0 0.0
2014-Jun-02 01:33N 47°39' W 122°23'0 0.1
2014-Jun-02 01:30N 47°40' W 122°23'0 0.0
2014-Jun-02 00:33N 47°39' W 122°23'0 0.0
2014-Jun-02 00:29N 47°39' W 122°23'0 0.0
2014-Jun-01 23:33N 47°39' W 122°23'0 0.0
2014-Jun-01 23:29N 47°39' W 122°23'0 0.0
2014-Jun-01 22:33N 47°39' W 122°23'0 0.0
2014-Jun-01 22:29N 47°39' W 122°23'0 0.0
2014-Jun-01 21:33N 47°39' W 122°23'0 0.0
2014-Jun-01 21:29N 47°39' W 122°23'0 0.0
2014-Jun-01 20:33N 47°39' W 122°23'0 0.0
2014-Jun-01 20:29N 47°39' W 122°23'0 0.0
2014-Jun-01 19:33N 47°39' W 122°23'0 0.0
2014-Jun-01 19:29N 47°39' W 122°23'0 0.0
2014-Jun-01 18:34N 47°39' W 122°23'0 0.0
2014-Jun-01 18:33N 47°39' W 122°23'0 0.0
2014-Jun-01 17:33N 47°39' W 122°23'0 0.0
2014-Jun-01 17:29N 47°39' W 122°23'0 0.0
2014-Jun-01 16:33N 47°40' W 122°23'0 0.0
2014-Jun-01 16:29N 47°40' W 122°23'0 0.0
2014-Jun-01 15:33N 47°40' W 122°23'0 0.1
2014-Jun-01 15:29N 47°39' W 122°23'0 0.0
2014-Jun-01 14:33N 47°40' W 122°23'0 0.0
2014-Jun-01 14:29N 47°40' W 122°23'0 0.0
2014-Jun-01 13:33N 47°39' W 122°23'0 0.0
2014-Jun-01 13:28N 47°39' W 122°23'0 0.0
2014-Jun-01 12:33N 47°39' W 122°23'0 0.0
2014-Jun-01 11:36N 47°39' W 122°23'0 0.0
2014-Jun-01 11:33N 47°39' W 122°23'0 0.0
2014-Jun-01 11:32N 47°39' W 122°23'0 0.0
2014-Jun-01 10:33N 47°40' W 122°23'0 0.2
2014-Jun-01 10:31N 47°39' W 122°23'0 0.0
2014-Jun-01 09:34N 47°39' W 122°23'0 0.0
2014-Jun-01 09:31N 47°39' W 122°23'0 0.0
2014-Jun-01 08:33N 47°39' W 122°23'0 0.2
2014-Jun-01 08:31N 47°40' W 122°23'0 0.0
2014-Jun-01 07:33N 47°40' W 122°23'0 0.0
2014-Jun-01 07:31N 47°40' W 122°23'0 0.0
2014-Jun-01 06:33N 47°39' W 122°23'0 0.0
2014-Jun-01 06:31N 47°39' W 122°23'0 0.0
2014-Jun-01 05:33N 47°39' W 122°23'0 0.0
2014-Jun-01 05:31N 47°39' W 122°23'0 0.0
2014-Jun-01 04:33N 47°39' W 122°23'0 0.0
2014-Jun-01 04:31N 47°39' W 122°23'0 0.0
2014-Jun-01 03:33N 47°39' W 122°23'0 0.0
2014-Jun-01 03:31N 47°39' W 122°23'0 0.0
2014-Jun-01 02:33N 47°39' W 122°23'0 0.1
2014-Jun-01 02:30N 47°39' W 122°23'0 0.0
2014-Jun-01 01:33N 47°40' W 122°23'0 0.1
2014-Jun-01 01:30N 47°39' W 122°23'0 0.0
2014-Jun-01 00:33N 47°39' W 122°23'0 0.0
2014-Jun-01 00:30N 47°39' W 122°23'0 0.0
2014-May-31 23:33N 47°40' W 122°23'0 0.0
2014-May-31 23:10N 47°40' W 122°23'0 0.0
2014-May-31 22:33N 47°39' W 122°23'0 0.1
2014-May-31 22:29N 47°39' W 122°23'0 0.0
2014-May-31 21:33N 47°39' W 122°23'0 0.0
2014-May-31 21:29N 47°39' W 122°23'0 0.0
2014-May-31 20:33N 47°40' W 122°23'0 0.1
2014-May-31 20:29N 47°39' W 122°23'0 0.0
2014-May-31 19:33N 47°39' W 122°23'0 0.0
2014-May-31 19:29N 47°39' W 122°23'0 0.0
2014-May-31 18:33N 47°39' W 122°23'0 0.0
2014-May-31 18:29N 47°39' W 122°23'0 0.0
2014-May-31 17:33N 47°39' W 122°23'0 0.0
2014-May-31 17:29N 47°39' W 122°23'0 0.0
2014-May-31 16:33N 47°40' W 122°23'0 0.1
2014-May-31 16:29N 47°39' W 122°23'0 0.0
2014-May-31 15:33N 47°39' W 122°23'0 0.1
2014-May-31 15:29N 47°40' W 122°23'0 0.0
2014-May-31 14:33N 47°40' W 122°23'0 0.0
2014-May-31 14:28N 47°40' W 122°23'0 0.0
2014-May-31 13:33N 47°39' W 122°23'0 0.1
2014-May-31 13:29N 47°40' W 122°23'0 0.0
2014-May-31 12:33N 47°39' W 122°23'0 0.1
2014-May-31 12:29N 47°40' W 122°23'0 0.0
2014-May-31 11:33N 47°39' W 122°23'0 0.1
2014-May-31 11:29N 47°40' W 122°23'0 0.0
2014-May-31 10:33N 47°39' W 122°23'0 0.0
2014-May-31 10:23N 47°40' W 122°23'0 0.0
2014-May-31 09:33N 47°40' W 122°23'0 0.4
2014-May-31 09:32N 47°39' W 122°23'0 0.0
2014-May-31 08:33N 47°39' W 122°23'0 0.1
2014-May-31 08:27N 47°40' W 122°23'0 0.0
2014-May-31 07:33N 47°39' W 122°23'0 0.0
2014-May-31 07:32N 47°39' W 122°23'0 0.0
2014-May-31 06:33N 47°39' W 122°23'0 0.0
2014-May-31 06:32N 47°39' W 122°23'0 0.0
2014-May-31 05:33N 47°39' W 122°23'0 0.0
2014-May-31 05:27N 47°39' W 122°23'0 0.0
2014-May-31 04:33N 47°39' W 122°23'0 0.0
2014-May-31 04:32N 47°39' W 122°23'0 0.0
2014-May-31 03:33N 47°39' W 122°23'0 0.2
2014-May-31 03:32N 47°40' W 122°23'0 0.0
2014-May-31 02:33N 47°39' W 122°23'0 0.0
2014-May-31 02:32N 47°39' W 122°23'0 0.0
2014-May-31 01:33N 47°40' W 122°23'0 0.1
2014-May-31 01:27N 47°39' W 122°23'0 0.0
2014-May-31 00:33N 47°39' W 122°23'0 0.0
2014-May-31 00:32N 47°39' W 122°23'0 0.0
2014-May-30 23:33N 47°39' W 122°23'0 0.1
2014-May-30 23:30N 47°40' W 122°23'0 0.0
2014-May-30 22:33N 47°39' W 122°23'0 0.0
2014-May-30 22:31N 47°39' W 122°23'0 0.0
2014-May-30 21:33N 47°39' W 122°23'0 0.0
2014-May-30 21:31N 47°39' W 122°23'0 0.0
2014-May-30 20:33N 47°39' W 122°23'0 0.1
2014-May-30 20:31N 47°40' W 122°23'0 0.0
2014-May-30 19:33N 47°39' W 122°23'0 0.0
2014-May-30 19:31N 47°39' W 122°23'0 0.0
2014-May-30 18:33N 47°40' W 122°23'0 0.0
2014-May-30 18:31N 47°40' W 122°23'0 0.0
2014-May-30 17:33N 47°39' W 122°23'0 0.0
2014-May-30 17:31N 47°39' W 122°23'0 0.0
2014-May-30 16:33N 47°39' W 122°23'0 0.0
2014-May-30 16:31N 47°39' W 122°23'0 0.0
2014-May-30 15:33N 47°39' W 122°23'0 0.0
2014-May-30 15:30N 47°39' W 122°23'0 0.0
2014-May-30 14:33N 47°39' W 122°23'0 0.0
2014-May-30 14:30N 47°39' W 122°23'0 0.0
2014-May-30 13:33N 47°39' W 122°23'0 0.0
2014-May-30 13:30N 47°39' W 122°23'0 0.0
2014-May-30 12:33N 47°40' W 122°23'0 0.1
2014-May-30 12:30N 47°39' W 122°23'0 0.0
2014-May-30 11:33N 47°40' W 122°23'0 0.0
2014-May-30 11:30N 47°40' W 122°23'0 0.0
2014-May-30 10:33N 47°39' W 122°23'0 0.0
2014-May-30 10:30N 47°39' W 122°23'0 0.0
2014-May-30 09:34N 47°39' W 122°23'0 0.0
2014-May-30 09:19N 47°39' W 122°23'0 0.0
2014-May-30 08:34N 47°40' W 122°23'0 0.0
2014-May-30 08:29N 47°40' W 122°23'0 0.0
2014-May-30 07:34N 47°39' W 122°23'0 0.0
2014-May-30 07:29N 47°39' W 122°23'0 0.0
2014-May-30 06:34N 47°39' W 122°23'0 0.1
2014-May-30 06:29N 47°40' W 122°23'0 0.0
2014-May-30 05:33N 47°39' W 122°23'0 0.0
2014-May-30 05:29N 47°39' W 122°23'0 0.0
2014-May-30 04:33N 47°39' W 122°23'  
Track history (hours):
 
Tides and Currents Weather Stations Pressure Air Temp Water Temp Dewpoint Dewpoint Depression Visibility Wind Speed Wind Dir Waves Ship Positions

Kodiak

Owner: KLEMZAK, JOHN, KODIAK, AK. More information available from US FCC via Universal Licensing System and Coast Guard Vessel Documentation Center.

Last reported at 2014-Jun-09 04:33 UTC. Time now 2014-Oct-22 22:31 UTC.
Position N 58°14' W 136°17'.
Warning: this ship's position is months out of date.

Length 37 m; draft 3.5 m.

Type: Other ship. MMSI: 303546000.

Date/timePositionNaut miles runAvg speedWind from/ knotsBaromVisibWave heightAir tempDewpointWater temp
2014-Jun-09 04:33N 58°14' W 136°17'8 8.3
2014-Jun-09 03:33N 58°15' W 136°02'8 7.9
2014-Jun-09 02:33N 58°18' W 135°47'10 9.1
2014-Jun-09 01:24N 58°14' W 135°29'276 7.6
2014-Jun-07 13:19N 54°29' W 130°41'7 9.1
2014-Jun-07 12:34N 54°23' W 130°37'9 8.9
2014-Jun-07 11:33N 54°15' W 130°30'143 8.0
2014-Jun-06 17:31N 52°15' W 128°18'8 8.4
2014-Jun-06 16:33N 52°11' W 128°07'7 6.9
2014-Jun-06 15:30N 52°05' W 128°01'7 7.1
2014-Jun-06 14:29N 51°58' W 127°56'26 8.6
2014-Jun-06 11:28N 51°32' W 127°52'18 8.3
2014-Jun-06 09:20N 51°15' W 127°52'7 8.6
2014-Jun-06 08:33N 51°08' W 127°48'9 9.0
2014-Jun-06 07:33N 51°02' W 127°38'9 9.0
2014-Jun-06 06:33N 50°56' W 127°27'9 9.1
2014-Jun-06 05:33N 50°51' W 127°15'9 8.7
2014-Jun-06 04:33N 50°46' W 127°04'3131.4
2014-Jun-06 03:33N 50°30' W 126°21'41 5.1
2014-Jun-05 19:28N 50°13' W 125°23'17 5.7
2014-Jun-05 16:28N 49°58' W 125°10'6 5.7
2014-Jun-05 15:28N 49°54' W 125°04'6 6.7
2014-Jun-05 14:33N 49°49' W 124°57'8 7.3
2014-Jun-05 13:31N 49°44' W 124°49'8 7.7
2014-Jun-05 12:32N 49°39' W 124°41'8 7.7
2014-Jun-05 11:33N 49°33' W 124°32'7 7.4
2014-Jun-05 10:33N 49°29' W 124°24'8 7.8
2014-Jun-05 09:33N 49°24' W 124°14'7 7.5
2014-Jun-05 08:33N 49°20' W 124°04'7 6.7
2014-Jun-05 07:33N 49°17' W 123°55'6 6.5
2014-Jun-05 06:33N 49°14' W 123°47'7 7.0
2014-Jun-05 05:33N 49°10' W 123°37'8 8.3
2014-Jun-05 04:33N 49°03' W 123°29'8 8.3
2014-Jun-05 03:33N 48°57' W 123°22'7 6.6
2014-Jun-05 02:33N 48°50' W 123°21'1010.1
2014-Jun-05 01:33N 48°41' W 123°15'8 8.2
2014-Jun-05 00:33N 48°33' W 123°11'7 7.4
2014-Jun-04 23:33N 48°27' W 123°05'4 5.1
2014-Jun-04 22:43N 48°23' W 123°01'210.4
2014-Jun-04 22:33N 48°22' W 122°60'10 9.8
2014-Jun-04 21:32N 48°14' W 122°51'1510.9
2014-Jun-04 20:09N 48°02' W 122°37'610.8
2014-Jun-04 19:33N 47°57' W 122°31'3 9.9
2014-Jun-04 19:13N 47°54' W 122°28'6 9.8
2014-Jun-04 18:33N 47°48' W 122°26'016.4
2014-Jun-04 18:33N 47°48' W 122°26'8 7.7
2014-Jun-04 17:33N 47°40' W 122°24'0 2.0
2014-Jun-04 17:33N 47°40' W 122°24'1 1.4
2014-Jun-04 16:33N 47°40' W 122°23'0 0.2
2014-Jun-04 15:33N 47°39' W 122°23'0 0.0
2014-Jun-04 15:33N 47°39' W 122°23'0 0.0
2014-Jun-04 14:33N 47°40' W 122°23'0 0.0
2014-Jun-04 13:34N 47°40' W 122°23'0 0.0
2014-Jun-04 13:33N 47°40' W 122°23'0 0.0
2014-Jun-04 12:34N 47°39' W 122°23'0 0.0
2014-Jun-04 11:34N 47°39' W 122°23'0 0.0
2014-Jun-04 10:33N 47°40' W 122°23'0 0.0
2014-Jun-04 09:34N 47°39' W 122°23'0 0.0
2014-Jun-04 08:34N 47°39' W 122°23'0 0.0
2014-Jun-04 07:33N 47°40' W 122°23'0 0.0
2014-Jun-04 07:22N 47°39' W 122°23'0 0.0
2014-Jun-04 06:34N 47°39' W 122°23'0 0.0
2014-Jun-04 06:32N 47°39' W 122°23'0 0.0
2014-Jun-04 05:34N 47°39' W 122°23'0 0.0
2014-Jun-04 05:32N 47°39' W 122°23'0 0.0
2014-Jun-04 04:33N 47°40' W 122°23'0 0.2
2014-Jun-04 04:31N 47°39' W 122°23'0 0.0
2014-Jun-04 03:33N 47°39' W 122°23'0 0.0
2014-Jun-04 03:31N 47°39' W 122°23'0 0.0
2014-Jun-04 02:34N 47°39' W 122°23'0 0.0
2014-Jun-04 02:31N 47°39' W 122°23'0 0.0
2014-Jun-04 01:33N 47°39' W 122°23'0 0.0
2014-Jun-04 01:31N 47°39' W 122°23'0 0.0
2014-Jun-04 00:33N 47°39' W 122°23'0 0.0
2014-Jun-04 00:31N 47°39' W 122°23'0 0.0
2014-Jun-03 23:33N 47°39' W 122°23'0 0.2
2014-Jun-03 23:31N 47°40' W 122°23'0 0.0
2014-Jun-03 22:33N 47°39' W 122°23'0 0.2
2014-Jun-03 22:31N 47°40' W 122°23'0 0.0
2014-Jun-03 21:33N 47°39' W 122°23'0 0.0
2014-Jun-03 21:31N 47°39' W 122°23'0 0.0
2014-Jun-03 20:33N 47°39' W 122°23'0 0.0
2014-Jun-03 19:33N 47°39' W 122°23'0 0.0
2014-Jun-03 18:33N 47°39' W 122°23'0 0.0
2014-Jun-03 18:17N 47°40' W 122°23'0 0.0
2014-Jun-03 17:34N 47°40' W 122°23'0 0.5
2014-Jun-03 17:32N 47°39' W 122°23'0 0.0
2014-Jun-03 16:34N 47°39' W 122°23'0 0.0
2014-Jun-03 16:32N 47°39' W 122°23'0 0.0
2014-Jun-03 15:33N 47°39' W 122°23'0 0.0
2014-Jun-03 15:31N 47°39' W 122°23'0 0.0
2014-Jun-03 14:33N 47°39' W 122°23'0 0.0
2014-Jun-03 14:27N 47°39' W 122°23'0 0.0
2014-Jun-03 13:33N 47°39' W 122°23'0 0.2
2014-Jun-03 13:31N 47°40' W 122°23'0 0.0
2014-Jun-03 12:33N 47°39' W 122°23'0 0.0
2014-Jun-03 12:31N 47°39' W 122°23'0 0.0
2014-Jun-03 11:33N 47°39' W 122°23'0 0.2
2014-Jun-03 11:32N 47°40' W 122°23'0 0.0
2014-Jun-03 10:33N 47°40' W 122°23'0 0.0
2014-Jun-03 10:32N 47°40' W 122°23'0 0.0
2014-Jun-03 09:33N 47°40' W 122°23'0 0.0
2014-Jun-03 09:32N 47°40' W 122°23'0 0.0
2014-Jun-03 08:33N 47°39' W 122°23'0 0.2
2014-Jun-03 08:31N 47°40' W 122°23'0 0.0
2014-Jun-03 07:33N 47°39' W 122°23'0 0.2
2014-Jun-03 07:31N 47°40' W 122°23'0 0.0
2014-Jun-03 06:33N 47°40' W 122°23'0 0.2
2014-Jun-03 06:31N 47°39' W 122°23'0 0.0
2014-Jun-03 05:33N 47°39' W 122°23'0 0.2
2014-Jun-03 05:31N 47°40' W 122°23'0 0.0
2014-Jun-03 04:33N 47°39' W 122°23'0 0.0
2014-Jun-03 04:31N 47°39' W 122°23'0 0.0
2014-Jun-03 03:33N 47°39' W 122°23'0 0.0
2014-Jun-03 03:31N 47°39' W 122°23'0 0.0
2014-Jun-03 02:33N 47°40' W 122°23'0 0.0
2014-Jun-03 02:31N 47°40' W 122°23'0 0.0
2014-Jun-03 01:33N 47°39' W 122°23'0 0.0
2014-Jun-03 01:31N 47°39' W 122°23'0 0.0
2014-Jun-03 00:33N 47°40' W 122°23'0 0.1
2014-Jun-03 00:30N 47°39' W 122°23'0 0.0
2014-Jun-02 23:33N 47°39' W 122°23'0 0.0
2014-Jun-02 23:31N 47°39' W 122°23'0 0.0
2014-Jun-02 22:33N 47°39' W 122°23'0 0.0
2014-Jun-02 22:31N 47°39' W 122°23'0 0.0
2014-Jun-02 21:33N 47°39' W 122°23'0 0.0
2014-Jun-02 21:30N 47°39' W 122°23'0 0.0
2014-Jun-02 20:33N 47°39' W 122°23'0 0.0
2014-Jun-02 20:30N 47°39' W 122°23'0 0.0
2014-Jun-02 19:33N 47°39' W 122°23'0 0.0
2014-Jun-02 19:30N 47°39' W 122°23'0 0.0
2014-Jun-02 18:33N 47°39' W 122°23'0 0.0
2014-Jun-02 18:31N 47°39' W 122°23'0 0.0
2014-Jun-02 17:33N 47°40' W 122°23'0 0.0
2014-Jun-02 17:30N 47°40' W 122°23'0 0.0
2014-Jun-02 16:33N 47°39' W 122°23'0 0.0
2014-Jun-02 16:30N 47°39' W 122°23'0 0.0
2014-Jun-02 15:33N 47°40' W 122°23'0 0.0
2014-Jun-02 15:30N 47°40' W 122°23'0 0.0
2014-Jun-02 14:33N 47°39' W 122°23'0 0.1
2014-Jun-02 14:30N 47°40' W 122°23'0 0.0
2014-Jun-02 13:33N 47°40' W 122°23'0 0.0
2014-Jun-02 13:30N 47°40' W 122°23'0 0.0
2014-Jun-02 12:33N 47°39' W 122°23'0 0.0
2014-Jun-02 12:30N 47°39' W 122°23'0 0.0
2014-Jun-02 11:33N 47°40' W 122°23'0 0.1
2014-Jun-02 11:30N 47°39' W 122°23'0 0.0
2014-Jun-02 10:33N 47°40' W 122°23'0 0.0
2014-Jun-02 10:30N 47°40' W 122°23'0 0.0
2014-Jun-02 09:33N 47°39' W 122°23'0 0.0
2014-Jun-02 09:30N 47°39' W 122°23'0 0.0
2014-Jun-02 08:33N 47°39' W 122°23'0 0.0
2014-Jun-02 08:30N 47°39' W 122°23'0 0.0
2014-Jun-02 07:30N 47°40' W 122°23'0 0.0
2014-Jun-02 06:33N 47°39' W 122°23'0 0.0
2014-Jun-02 06:30N 47°39' W 122°23'0 0.0
2014-Jun-02 05:33N 47°40' W 122°23'0 0.2
2014-Jun-02 05:30N 47°39' W 122°23'0 0.0
2014-Jun-02 04:33N 47°39' W 122°23'0 0.0
2014-Jun-02 04:30N 47°39' W 122°23'0 0.0
2014-Jun-02 03:33N 47°39' W 122°23'0 0.0
2014-Jun-02 03:30N 47°39' W 122°23'0 0.0
2014-Jun-02 02:33N 47°39' W 122°23'0 0.7
2014-Jun-02 02:30N 47°39' W 122°23'0 0.0
2014-Jun-02 01:33N 47°39' W 122°23'0 0.1
2014-Jun-02 01:30N 47°40' W 122°23'0 0.0
2014-Jun-02 00:33N 47°39' W 122°23'0 0.0
2014-Jun-02 00:29N 47°39' W 122°23'0 0.0
2014-Jun-01 23:33N 47°39' W 122°23'0 0.0
2014-Jun-01 23:29N 47°39' W 122°23'0 0.0
2014-Jun-01 22:33N 47°39' W 122°23'0 0.0
2014-Jun-01 22:29N 47°39' W 122°23'0 0.0
2014-Jun-01 21:33N 47°39' W 122°23'0 0.0
2014-Jun-01 21:29N 47°39' W 122°23'0 0.0
2014-Jun-01 20:33N 47°39' W 122°23'0 0.0
2014-Jun-01 20:29N 47°39' W 122°23'0 0.0
2014-Jun-01 19:33N 47°39' W 122°23'0 0.0
2014-Jun-01 19:29N 47°39' W 122°23'0 0.0
2014-Jun-01 18:34N 47°39' W 122°23'0 0.0
2014-Jun-01 18:33N 47°39' W 122°23'0 0.0
2014-Jun-01 17:33N 47°39' W 122°23'0 0.0
2014-Jun-01 17:29N 47°39' W 122°23'0 0.0
2014-Jun-01 16:33N 47°40' W 122°23'0 0.0
2014-Jun-01 16:29N 47°40' W 122°23'0 0.0
2014-Jun-01 15:33N 47°40' W 122°23'0 0.1
2014-Jun-01 15:29N 47°39' W 122°23'0 0.0
2014-Jun-01 14:33N 47°40' W 122°23'0 0.0
2014-Jun-01 14:29N 47°40' W 122°23'0 0.0
2014-Jun-01 13:33N 47°39' W 122°23'0 0.0
2014-Jun-01 13:28N 47°39' W 122°23'0 0.0
2014-Jun-01 12:33N 47°39' W 122°23'0 0.0
2014-Jun-01 11:36N 47°39' W 122°23'0 0.0
2014-Jun-01 11:33N 47°39' W 122°23'0 0.0
2014-Jun-01 11:32N 47°39' W 122°23'0 0.0
2014-Jun-01 10:33N 47°40' W 122°23'0 0.2
2014-Jun-01 10:31N 47°39' W 122°23'0 0.0
2014-Jun-01 09:34N 47°39' W 122°23'0 0.0
2014-Jun-01 09:31N 47°39' W 122°23'0 0.0
2014-Jun-01 08:33N 47°39' W 122°23'0 0.2
2014-Jun-01 08:31N 47°40' W 122°23'0 0.0
2014-Jun-01 07:33N 47°40' W 122°23'0 0.0
2014-Jun-01 07:31N 47°40' W 122°23'0 0.0
2014-Jun-01 06:33N 47°39' W 122°23'0 0.0
2014-Jun-01 06:31N 47°39' W 122°23'0 0.0
2014-Jun-01 05:33N 47°39' W 122°23'0 0.0
2014-Jun-01 05:31N 47°39' W 122°23'0 0.0
2014-Jun-01 04:33N 47°39' W 122°23'0 0.0
2014-Jun-01 04:31N 47°39' W 122°23'0 0.0
2014-Jun-01 03:33N 47°39' W 122°23'0 0.0
2014-Jun-01 03:31N 47°39' W 122°23'0 0.0
2014-Jun-01 02:33N 47°39' W 122°23'0 0.1
2014-Jun-01 02:30N 47°39' W 122°23'0 0.0
2014-Jun-01 01:33N 47°40' W 122°23'0 0.1
2014-Jun-01 01:30N 47°39' W 122°23'0 0.0
2014-Jun-01 00:33N 47°39' W 122°23'0 0.0
2014-Jun-01 00:30N 47°39' W 122°23'0 0.0
2014-May-31 23:33N 47°40' W 122°23'0 0.0
2014-May-31 23:10N 47°40' W 122°23'0 0.0
2014-May-31 22:33N 47°39' W 122°23'0 0.1
2014-May-31 22:29N 47°39' W 122°23'0 0.0
2014-May-31 21:33N 47°39' W 122°23'0 0.0
2014-May-31 21:29N 47°39' W 122°23'0 0.0
2014-May-31 20:33N 47°40' W 122°23'0 0.1
2014-May-31 20:29N 47°39' W 122°23'0 0.0
2014-May-31 19:33N 47°39' W 122°23'0 0.0
2014-May-31 19:29N 47°39' W 122°23'0 0.0
2014-May-31 18:33N 47°39' W 122°23'0 0.0
2014-May-31 18:29N 47°39' W 122°23'0 0.0
2014-May-31 17:33N 47°39' W 122°23'0 0.0
2014-May-31 17:29N 47°39' W 122°23'0 0.0
2014-May-31 16:33N 47°40' W 122°23'0 0.1
2014-May-31 16:29N 47°39' W 122°23'0 0.0
2014-May-31 15:33N 47°39' W 122°23'0 0.1
2014-May-31 15:29N 47°40' W 122°23'0 0.0
2014-May-31 14:33N 47°40' W 122°23'0 0.0
2014-May-31 14:28N 47°40' W 122°23'0 0.0
2014-May-31 13:33N 47°39' W 122°23'0 0.1
2014-May-31 13:29N 47°40' W 122°23'0 0.0
2014-May-31 12:33N 47°39' W 122°23'0 0.1
2014-May-31 12:29N 47°40' W 122°23'0 0.0
2014-May-31 11:33N 47°39' W 122°23'0 0.1
2014-May-31 11:29N 47°40' W 122°23'0 0.0
2014-May-31 10:33N 47°39' W 122°23'0 0.0
2014-May-31 10:23N 47°40' W 122°23'0 0.0
2014-May-31 09:33N 47°40' W 122°23'0 0.4
2014-May-31 09:32N 47°39' W 122°23'0 0.0
2014-May-31 08:33N 47°39' W 122°23'0 0.1
2014-May-31 08:27N 47°40' W 122°23'0 0.0
2014-May-31 07:33N 47°39' W 122°23'0 0.0
2014-May-31 07:32N 47°39' W 122°23'0 0.0
2014-May-31 06:33N 47°39' W 122°23'0 0.0
2014-May-31 06:32N 47°39' W 122°23'0 0.0
2014-May-31 05:33N 47°39' W 122°23'0 0.0
2014-May-31 05:27N 47°39' W 122°23'0 0.0
2014-May-31 04:33N 47°39' W 122°23'0 0.0
2014-May-31 04:32N 47°39' W 122°23'0 0.0
2014-May-31 03:33N 47°39' W 122°23'0 0.2
2014-May-31 03:32N 47°40' W 122°23'0 0.0
2014-May-31 02:33N 47°39' W 122°23'0 0.0
2014-May-31 02:32N 47°39' W 122°23'0 0.0
2014-May-31 01:33N 47°40' W 122°23'0 0.1
2014-May-31 01:27N 47°39' W 122°23'0 0.0
2014-May-31 00:33N 47°39' W 122°23'0 0.0
2014-May-31 00:32N 47°39' W 122°23'0 0.0
2014-May-30 23:33N 47°39' W 122°23'0 0.1
2014-May-30 23:30N 47°40' W 122°23'0 0.0
2014-May-30 22:33N 47°39' W 122°23'0 0.0
2014-May-30 22:31N 47°39' W 122°23'0 0.0
2014-May-30 21:33N 47°39' W 122°23'0 0.0
2014-May-30 21:31N 47°39' W 122°23'0 0.0
2014-May-30 20:33N 47°39' W 122°23'0 0.1
2014-May-30 20:31N 47°40' W 122°23'0 0.0
2014-May-30 19:33N 47°39' W 122°23'0 0.0
2014-May-30 19:31N 47°39' W 122°23'0 0.0
2014-May-30 18:33N 47°40' W 122°23'0 0.0
2014-May-30 18:31N 47°40' W 122°23'0 0.0
2014-May-30 17:33N 47°39' W 122°23'0 0.0
2014-May-30 17:31N 47°39' W 122°23'0 0.0
2014-May-30 16:33N 47°39' W 122°23'0 0.0
2014-May-30 16:31N 47°39' W 122°23'0 0.0
2014-May-30 15:33N 47°39' W 122°23'0 0.0
2014-May-30 15:30N 47°39' W 122°23'0 0.0
2014-May-30 14:33N 47°39' W 122°23'0 0.0
2014-May-30 14:30N 47°39' W 122°23'0 0.0
2014-May-30 13:33N 47°39' W 122°23'0 0.0
2014-May-30 13:30N 47°39' W 122°23'0 0.0
2014-May-30 12:33N 47°40' W 122°23'0 0.1
2014-May-30 12:30N 47°39' W 122°23'0 0.0
2014-May-30 11:33N 47°40' W 122°23'0 0.0
2014-May-30 11:30N 47°40' W 122°23'0 0.0
2014-May-30 10:33N 47°39' W 122°23'0 0.0
2014-May-30 10:30N 47°39' W 122°23'0 0.0
2014-May-30 09:34N 47°39' W 122°23'0 0.0
2014-May-30 09:19N 47°39' W 122°23'0 0.0
2014-May-30 08:34N 47°40' W 122°23'0 0.0
2014-May-30 08:29N 47°40' W 122°23'0 0.0
2014-May-30 07:34N 47°39' W 122°23'0 0.0
2014-May-30 07:29N 47°39' W 122°23'0 0.0
2014-May-30 06:34N 47°39' W 122°23'0 0.1
2014-May-30 06:29N 47°40' W 122°23'0 0.0
2014-May-30 05:33N 47°39' W 122°23'0 0.0
2014-May-30 05:29N 47°39' W 122°23'0 0.0
2014-May-30 04:33N 47°39' W 122°23'  

Dump ship's entire track history